User: anonymous   Login
Location: Hopkins Observatory
(42.6965°N, 73.1843°W)
Time: 09:43:13
(UTC-05:00)
Language:

UOSAT-12 - Orbit

View from above orbital plane
View from above orbital plane
View from above satellite
View from above satellite

Ground track
Ground track

The orbit data is extracted from the following two-line orbital elements,

1 25693U 99021A   16044.95487164  .00000287  00000-0  55801-4 0  9995
2 25693  64.5552 193.3480 0020350 213.7038 284.3308 14.80607629907733
Epoch (UTC): 13 February 2016 22:55:00
Eccentricity: 0.0020350
inclination: 64.5552°
perigee height: 613 km
apogee height: 641 km
right ascension of ascending node: 193.3480°
argument of perigee: 213.7038°
revolutions per day: 14.80607629
mean anomaly at epoch: 284.3308°
orbit number at epoch: 90773

The dashed part of the orbit path shows where the satellite is in the earth's shadow,  

DLR